| time (UTC) | temp F | wind direction | speed knots | gust knots | rain 1hr in | rain 24hr in | rain mn in | humidity % | barometer mb |
| 20260504100105 | 47 | 0 | 0.0 | 0.0 | 0.00 | 0.00 | 0.00 | 76 | 1014.9 |
| 20260504090106 | 48 | 0 | 0.0 | 0.0 | 0.00 | 0.00 | 0.00 | 68 | 1015.1 |
| 20260504081554 | 47 | 0 | 0.0 | 0.0 | 0.00 | 0.00 | 0.00 | 73 | 1015.2 |
| 20260504050106 | 47 | 0 | 0.0 | 0.0 | 0.00 | 0.00 | 0.00 | 73 | 1015.2 |
| 20260504044614 | 47 | 0 | 0.0 | 0.0 | 0.00 | 0.00 | 0.00 | 72 | 1015.1 |
| 20260504043101 | 47 | 0 | 0.0 | 0.0 | 0.00 | 0.00 | 0.00 | 71 | 1015.2 |
| 20260504041552 | 47 | 0 | 0.0 | 0.0 | 0.00 | 0.00 | 0.00 | 72 | 1014.9 |
| 20260504040117 | 47 | 0 | 0.0 | 0.0 | 0.00 | 0.00 | 0.00 | 71 | 1015.1 |
| 20260504034607 | 46 | 0 | 0.0 | 0.0 | 0.00 | 0.00 | 0.00 | 71 | 1014.9 |
| 20260504033058 | 45 | 0 | 0.0 | 0.0 | 0.00 | 0.00 | 0.00 | 71 | 1015.0 |
| 20260504031600 | 45 | 0 | 0.0 | 0.0 | 0.00 | 0.00 | 0.00 | 71 | 1015.0 |
| 20260504024604 | 47 | 0 | 0.0 | 0.0 | 0.00 | 0.00 | 0.00 | 68 | 1014.9 |
| 20260504023058 | 47 | 0 | 0.0 | 0.0 | 0.00 | 0.00 | 0.00 | 65 | 1015.0 |
| 20260504021555 | 48 | 0 | 0.0 | 0.0 | 0.00 | 0.00 | 0.00 | 64 | 1015.0 |
| 20260504020053 | 49 | 0 | 0.0 | 0.0 | 0.00 | 0.00 | 0.00 | 63 | 1014.8 |
| 20260504014557 | 49 | 0 | 0.0 | 0.9 | 0.00 | 0.00 | 0.00 | 60 | 1014.7 |
| 20260504013111 | 49 | 0 | 0.0 | 0.0 | 0.00 | 0.00 | 0.00 | 60 | 1014.8 |
| 20260504011554 | 50 | 0 | 0.0 | 0.0 | 0.00 | 0.00 | 0.00 | 59 | 1014.5 |
| 20260504010104 | 50 | 0 | 0.0 | 0.0 | 0.00 | 0.00 | 0.00 | 57 | 1014.5 |
| 20260504004606 | 51 | 0 | 0.0 | 0.0 | 0.00 | 0.00 | 0.00 | 54 | 1014.4 |
| 20260504003053 | 52 | 0 | 0.0 | 0.0 | 0.00 | 0.00 | 0.00 | 53 | 1014.4 |
| 20260504001551 | 53 | 0 | 0.0 | 0.0 | 0.00 | 0.00 | 0.00 | 51 | 1014.2 |
| 20260504000114 | 55 | 0 | 0.0 | 0.0 | 0.00 | 0.00 | 0.00 | 49 | 1014.1 |
| 20260503234555 | 56 | 0 | 0.0 | 0.0 | 0.00 | 0.00 | 0.00 | 48 | 1014.0 |
| 20260503233049 | 58 | 0 | 0.0 | 0.0 | 0.00 | 0.00 | 0.00 | 45 | 1013.8 |
| 20260503231556 | 59 | 0 | 0.0 | 0.0 | 0.00 | 0.00 | 0.00 | 40 | 1013.8 |
| 20260503230056 | 60 | 0 | 0.0 | 0.0 | 0.00 | 0.00 | 0.00 | 34 | 1013.7 |
| 20260503224551 | 61 | 0 | 0.0 | 0.0 | 0.00 | 0.00 | 0.00 | 31 | 1013.8 |
| 20260503223058 | 62 | 0 | 0.0 | 0.0 | 0.00 | 0.00 | 0.00 | 29 | 1013.9 |
| 20260503221553 | 62 | 0 | 0.0 | 2.6 | 0.00 | 0.00 | 0.00 | 30 | 1014.1 |
| 20260503220121 | 62 | 0 | 0.0 | 0.9 | 0.00 | 0.00 | 0.00 | 31 | 1014.0 |
| 20260503214558 | 62 | 221 | 1.7 | 4.3 | 0.00 | 0.00 | 0.00 | 31 | 1013.9 |
| 20260503213059 | 63 | 0 | 0.0 | 5.2 | 0.00 | 0.00 | 0.00 | 29 | 1014.0 |
| 20260503211559 | 63 | 0 | 0.0 | 3.5 | 0.00 | 0.00 | 0.00 | 30 | 1014.1 |
| 20260503210057 | 63 | 0 | 0.0 | 4.3 | 0.00 | 0.00 | 0.00 | 32 | 1014.0 |
| 20260503204558 | 62 | 0 | 0.0 | 4.3 | 0.00 | 0.00 | 0.00 | 30 | 1014.1 |
| 20260503203100 | 63 | 277 | 0.0 | 2.6 | 0.00 | 0.00 | 0.00 | 30 | 1014.3 |
| 20260503201554 | 63 | 0 | 0.0 | 6.1 | 0.00 | 0.00 | 0.00 | 30 | 1014.4 |
| 20260503200100 | 63 | 0 | 0.0 | 4.3 | 0.00 | 0.00 | 0.00 | 31 | 1014.8 |
| 20260503194559 | 62 | 0 | 0.0 | 1.7 | 0.00 | 0.00 | 0.00 | 35 | 1015.0 |
| 20260503193052 | 62 | 0 | 0.0 | 2.6 | 0.00 | 0.00 | 0.00 | 32 | 1015.3 |
| 20260503191555 | 61 | 0 | 0.0 | 6.1 | 0.00 | 0.00 | 0.00 | 33 | 1015.5 |
| 20260503190051 | 62 | 0 | 0.0 | 7.8 | 0.00 | 0.00 | 0.00 | 33 | 1015.7 |
| 20260503184603 | 61 | 0 | 0.9 | 7.8 | 0.00 | 0.00 | 0.00 | 32 | 1015.8 |
| 20260503183055 | 61 | 0 | 0.0 | 3.5 | 0.00 | 0.00 | 0.00 | 34 | 1016.1 |
| 20260503181554 | 60 | 0 | 0.0 | 7.0 | 0.00 | 0.00 | 0.00 | 35 | 1016.1 |
| 20260503180106 | 59 | 0 | 0.0 | 2.6 | 0.00 | 0.00 | 0.00 | 35 | 1016.1 |
| 20260503174555 | 58 | 0 | 0.0 | 1.7 | 0.00 | 0.00 | 0.00 | 37 | 1016.2 |
| 20260503173106 | 58 | 38 | 0.9 | 6.1 | 0.00 | 0.00 | 0.00 | 37 | 1016.4 |
| 20260503171554 | 57 | 22 | 0.0 | 2.6 | 0.00 | 0.00 | 0.00 | 37 | 1016.4 |
| 20260503170106 | 57 | 0 | 0.0 | 2.6 | 0.00 | 0.00 | 0.00 | 37 | 1016.6 |
| 20260503160111 | 55 | 0 | 0.0 | 2.6 | 0.00 | 0.00 | 0.00 | 42 | 1017.1 |